[ hide orbit diagram ]
For accurate long-term ephemerides, please instead use our Horizons system.This orbit viewer was implemented using two-body methods, and hence should not be used for determining accurate long-term trajectories (over several years or decades) or planetary encounter circumstances.
Orbital Elements at Epoch 2459000.5 (2020-May-31.0) TDB
Reference: JPL 18 (heliocentric ecliptic J2000)
Element | Value | Uncertainty (1-sigma) | Units |
e | .1484399224703469 | 5.6677e-08 | |
a | 2.275248804660706 | 9.0265e-09 | au |
q | 1.937511048496122 | 1.2635e-07 | au |
i | 6.345389349104406 | 4.2714e-06 | deg |
node | 142.6749124262319 | 4.3309e-05 | deg |
peri | 205.8397760618008 | 4.5824e-05 | deg |
M | .05378961441497788 | 1.6932e-05 | deg |
tp | 2459000.312700033579 (2020-May-30.81270003) | 5.8957e-05 | TDB |
period | 1253.55031161835 3.43 | 7.4597e-06 2.042e-08 | d yr |
n | .2871843249236923 | 1.709e-09 | deg/d |
Q | 2.612986560825291 | 1.0366e-08 | au |
|
| | Orbit Determination Parameters
Additional Information
|
[ show covariance matrix ]
Physical Parameter Table
Parameter |
Symbol |
Value |
Units |
Sigma |
Reference |
Notes |
absolute magnitude |
H |
16.3 |
|
n/a |
MPO273218 |
|
|
136294 (2004 AK26) Discovered 2004-Jan-13 by NEAT at Palomar |
Reference: 20060907/Numbers.arc | Last Updated: 2006-09-10 |
|
|